Location: Boiro
(42.6475°N, 8.8834°W)
Time: 12:16:58
(UTC+01:00)

Altair - Pass Details

Date: 02 December 2021
Orbit: 1501 x 1683 km, 47.2° (Epoch: 17 January)

Event Time Altitude Azimuth Distance (km) Brightness Sun altitude
Rises 19:08:43 0° 258° (WSW) 4,745 12.1 -11.9°
Reaches altitude 10° 19:11:51 10° 261° (W) 3,739 11.0 -12.4°
Maximum altitude 19:21:16 74° 346° (NNW) 1,576 7.5 -14.1°
Enters shadow 19:28:15 20° 69° (ENE) 2,965 8.3 -15.3°
